FENGYUN 1C DEB, 31248

Orbit data source: Space-Track

FENGYUN 1C DEB, 31248 is space debris in SSO originally from a launch on Mon, 10 May 1999 UTC launched from the Taiyaun Space Center, China (TSC). Fengyun 1C debris stems from the Chinese weather satellite Fengyun-1C, which was intentionally destroyed by a Chinese anti-satellite missile in 2007. This event dramatically increased the amount of space debris, with thousands of trackable fragments posing hazards to satellites and human spaceflight. The Fengyun 1C debris cloud has become a focal point in discussions about space sustainability and the need for international regulations to prevent the creation of new debris.

Loading next visibility...
Identifier
31248, 1999-025BME
Orbit
SSO
Country
Flag of CNCN / PRC
Related business
Manufacturer
Unknown
Mission
Spacecraft
Bus & Motor
Unknown
Mass
Unknown
Launch date (UTC)
1999-05-10 (26 years ago)
Launch vehicle
Unknown
Launch site
Taiyaun Space Center, China (TSC)
Object type
Payload
Rocket body
Debris
Shape & HBR
Unknown shape, 0.1 m
Radar Cross Section
Small (<0.1 m²)

Expand to show TLE details & history
Last TLE update: 11 hours ago

TLE from 11 hours ago
0 FENGYUN 1C DEB
1 31248U 99025BME 25289.13088963  .00000858  00000-0  66309-3 0  9995
2 31248  99.2712 346.5545 0111851 107.6756 281.2741 13.92663381940225
Epoch: 2025-10-16T03:08Z
TLE epoch observation values (Epoch: 2025-10-16T03:08:28.864Z)
Latitude
27.33753°
Longitude
-90.27629°
Altitude
907.526 km
Speed
7.408 km/s
True Right ascension
22h 46m 57s
True Declination
27° 12' 01"
Sunlit
Object was in full shadow at epoch
Visualization orbit readout
Latitude
Unknown
Longitude
Unknown
Altitude
Unknown
Speed
Unknown
Apparent Right ascension
Unknown
Apparent Declination
Unknown
Sunlit
N/A
Visualization observer readout
Local Sidereal Time
08:59:22
Azimuth
Unknown
Elevation
Unknown
Doppler factor
Unknown
Orbital elements
Apogee altitude
998.126 km
Perigee altitude
834.943 km
Semi-major axis
7,294.671 km
Eccentricity
0.01119
Inclination
99.2712°
RAAN
346.5545°
Arg. of periapsis
107.6756°
True anomaly
280.01377°
Mean anomaly
281.2741°
Eccentric anomaly
280.64427°
Mean motion
3.48365 °/min
Orbital period
103.34 mins
BSTAR
0.00066309
Loading maneuver chart data...
Computing Atmospheric mass density...

Documentation

Showing up to 5 results
|